QPF
0.01 0.01 0.02 0.03 0.04 0.04 0.04 0.04 0.04 0.04 0.04 0.04 0.04 0.04 0.03 0.03 0.04 0.05 0.06 0.05 0.04 0.04 0.05 0.06 0.07 0.07 0.06 0.04 0.04 0.03 0.02 0.03 0.04 0.04 0.04 0.05 0.04 0.02 0.01 0.01 0.01 0.01 0.01
0.01 0.01 0.01 0.03 0.04 0.04 0.05 0.04 0.04 0.03 0.03 0.04 0.03 0.03 0.03 0.02 0.02 0.03 0.03 0.04 0.06 0.06 0.06 0.06 0.06 0.06 0.05 0.04 0.03 0.02 0.02 0.02 0.03 0.03 0.03 0.04 0.04 0.02 0.01 0.01 0.01 0.01 0.01
0.01 0.01 0.02 0.03 0.05 0.06 0.05 0.04 0.04 0.03 0.03 0.04 0.04 0.03 0.03 0.02 0.03 0.03 0.03 0.03 0.05 0.06 0.05 0.05 0.06 0.05 0.04 0.03 0.02 0.02 0.03 0.03 0.02 0.03 0.03 0.04 0.03 0.03 0.02 0.01 0.01 0.02 0.01
0.01 0.01 0.02 0.04 0.05 0.04 0.04 0.02 0.03 0.03 0.03 0.03 0.04 0.04 0.05 0.04 0.03 0.03 0.02 0.03 0.04 0.04 0.04 0.06 0.09 0.09 0.06 0.03 0.02 0.02 0.02 0.02 0.01 0.01 0.02 0.04 0.03 0.02 0.02 0.01 0.01 0.01 0.01
0.01 0.01 0.01 0.02 0.03 0.03 0.02 0.02 0.02 0.03 0.03 0.03 0.03 0.05 0.07 0.06 0.04 0.03 0.02 0.02 0.03 0.04 0.03 0.04 0.06 0.06 0.04 0.03 0.02 0.01 0.01 0.01 0.01 0.01 0.02 0.04 0.05 0.03 0.02 0.02 0.02 0.01 0.01
0.02 0.02 0.01 0.02 0.02 0.02 0.01 0.02 0.02 0.03 0.03 0.03 0.03 0.04 0.05 0.04 0.04 0.03 0.03 0.03 0.04 0.04 0.03 0.03 0.05 0.06 0.05 0.03 0.02 0.01 0.01 0.01 0.01 0.01 0.02 0.02 0.04 0.04 0.03 0.02 0.02 0.02 0.01
0.02 0.02 0.02 0.03 0.02 0.01 0.01 0.01 0.02 0.02 0.02 0.03 0.03 0.04 0.04 0.03 0.02 0.02 0.03 0.04 0.04 0.04 0.04 0.04 0.04 0.04 0.04 0.03 0.02 0.02 0.01 0.01 0.00 0.01 0.02 0.02 0.03 0.04 0.03 0.02 0.02 0.02 0.02
0.01 0.01 0.02 0.03 0.02 0.02 0.02 0.01 0.01 0.01 0.02 0.02 0.03 0.05 0.05 0.03 0.02 0.03 0.05 0.05 0.05 0.05 0.06 0.06 0.06 0.05 0.05 0.03 0.02 0.02 0.01 0.00 0.00 0.01 0.01 0.02 0.01 0.01 0.02 0.02 0.01 0.01 0.02
0.01 0.02 0.02 0.02 0.01 0.02 0.01 0.01 0.01 0.02 0.02 0.02 0.02 0.03 0.02 0.02 0.03 0.03 0.04 0.04 0.05 0.04 0.04 0.04 0.05 0.04 0.03 0.03 0.02 0.01 0.00 0.00 0.00 0.01 0.02 0.02 0.01 0.01 0.01 0.01 0.02 0.01 0.01
0.02 0.02 0.03 0.03 0.02 0.02 0.01 0.01 0.01 0.01 0.01 0.01 0.01 0.01 0.01 0.01 0.02 0.03 0.03 0.04 0.05 0.05 0.04 0.03 0.03 0.03 0.02 0.01 0.01 0.00 0.00 0.01 0.01 0.02 0.04 0.03 0.01 0.01 0.02 0.02 0.02 0.02 0.02
0.02 0.02 0.02 0.03 0.04 0.04 0.03 0.02 0.02 0.02 0.03 0.02 0.01 0.01 0.02 0.03 0.03 0.03 0.04 0.05 0.06 0.06 0.05 0.04 0.03 0.03 0.02 0.01 0.00 0.00 0.00 0.01 0.02 0.03 0.05 0.03 0.02 0.02 0.03 0.03 0.02 0.02 0.03
0.02 0.02 0.03 0.03 0.04 0.05 0.04 0.04 0.04 0.03 0.03 0.03 0.02 0.01 0.02 0.04 0.04 0.03 0.03 0.04 0.04 0.05 0.05 0.04 0.03 0.02 0.02 0.01 0.00 0.00 0.00 0.00 0.01 0.01 0.03 0.04 0.03 0.02 0.03 0.03 0.02 0.03 0.03
0.03 0.02 0.02 0.02 0.03 0.04 0.04 0.04 0.05 0.04 0.04 0.03 0.03 0.02 0.03 0.04 0.03 0.03 0.03 0.03 0.04 0.05 0.05 0.05 0.04 0.03 0.03 0.01 0.01 0.00 0.00 0.00 0.00 0.01 0.01 0.03 0.03 0.03 0.03 0.02 0.02 0.02 0.03
0.03 0.02 0.01 0.01 0.02 0.04 0.04 0.03 0.03 0.03 0.04 0.04 0.04 0.03 0.03 0.04 0.03 0.03 0.03 0.04 0.06 0.06 0.06 0.06 0.05 0.05 0.04 0.02 0.01 0.01 0.01 0.00 0.01 0.01 0.01 0.01 0.02 0.03 0.03 0.03 0.03 0.03 0.03
0.04 0.03 0.02 0.02 0.02 0.03 0.04 0.03 0.02 0.03 0.03 0.04 0.05 0.05 0.04 0.04 0.04 0.04 0.04 0.04 0.05 0.05 0.05 0.06 0.06 0.07 0.07 0.04 0.02 0.01 0.01 0.00 0.00 0.01 0.01 0.01 0.01 0.02 0.03 0.05 0.06 0.07 0.06
0.05 0.04 0.03 0.03 0.03 0.03 0.03 0.03 0.02 0.02 0.03 0.04 0.05 0.06 0.06 0.06 0.06 0.06 0.04 0.04 0.04 0.04 0.05 0.05 0.05 0.06 0.06 0.07 0.04 0.03 0.02 0.01 0.01 0.00 0.00 0.01 0.01 0.01 0.01 0.02 0.04 0.06 0.06
0.04 0.05 0.05 0.04 0.03 0.02 0.02 0.02 0.02 0.02 0.02 0.02 0.03 0.04 0.05 0.05 0.05 0.05 0.05 0.05 0.04 0.04 0.04 0.05 0.05 0.05 0.04 0.04 0.03 0.03 0.02 0.02 0.01 0.01 0.00 0.00 0.00 0.01 0.01 0.01 0.02 0.03 0.03
0.03 0.04 0.04 0.04 0.03 0.03 0.02 0.01 0.02 0.03 0.02 0.02 0.02 0.03 0.03 0.04 0.04 0.04 0.03 0.03 0.03 0.03 0.03 0.04 0.04 0.04 0.04 0.04 0.03 0.02 0.02 0.01 0.01 0.01 0.01 0.01 0.01 0.01 0.01 0.01 0.01 0.02 0.02
0.02 0.03 0.03 0.03 0.03 0.03 0.03 0.02 0.02 0.02 0.02 0.02 0.02 0.02 0.02 0.02 0.02 0.02 0.02 0.02 0.02 0.02 0.02 0.04 0.04 0.04 0.04 0.04 0.04 0.04 0.03 0.03 0.03 0.02 0.02 0.02 0.02 0.01 0.01 0.01 0.01 0.01 0.02
0.02 0.02 0.03 0.03 0.03 0.03 0.03 0.03 0.03 0.03 0.03 0.02 0.02 0.01 0.01 0.01 0.01 0.01 0.01 0.01 0.01 0.01 0.01 0.01 0.02 0.03 0.03 0.04 0.04 0.04 0.03 0.03 0.03 0.02 0.02 0.02 0.02 0.02 0.02 0.02 0.02 0.02 0.02
0.02 0.02 0.02 0.03 0.02 0.02 0.02 0.03 0.03 0.02 0.02 0.02 0.02 0.01 0.01 0.01 0.01 0.01 0.01 0.01 0.01 0.01 0.01 0.00 0.01 0.01 0.02 0.02 0.03 0.03 0.03 0.02 0.02 0.02 0.01 0.01 0.02 0.02 0.02 0.02 0.03 0.03 0.03
0.02 0.01 0.01 0.02 0.01 0.02 0.02 0.02 0.02 0.02 0.02 0.02 0.02 0.01 0.01 0.00 0.00 0.00 0.00 0.01 0.00 0.00 0.00 0.00 0.00 0.00 0.01 0.01 0.02 0.03 0.03 0.02 0.02 0.01 0.01 0.01 0.01 0.01 0.01 0.02 0.02 0.02 0.02
0.03 0.02 0.01 0.01 0.01 0.01 0.02 0.03 0.03 0.03 0.03 0.02 0.02 0.01 0.01 0.01 0.00 0.00 0.00 0.00 0.00 0.00 0.00 0.00 0.00 0.00 0.00 0.01 0.01 0.02 0.03 0.02 0.02 0.01 0.01 0.01 0.01 0.01 0.01 0.01 0.01 0.01 0.01
0.02 0.02 0.02 0.02 0.02 0.02 0.02 0.02 0.02 0.02 0.02 0.02 0.02 0.01 0.01 0.01 0.00 0.00 0.00 0.01 0.01 0.00 0.00 0.00 0.00 0.00 0.00 0.01 0.01 0.01 0.02 0.02 0.02 0.02 0.01 0.01 0.01 0.01 0.01 0.01 0.01 0.01 0.00
0.01 0.01 0.01 0.01 0.01 0.02 0.02 0.01 0.01 0.02 0.02 0.02 0.02 0.01 0.01 0.01 0.01 0.00 0.00 0.00 0.01 0.01 0.01 0.00 0.00 0.00 0.00 0.00 0.01 0.01 0.01 0.01 0.02 0.02 0.02 0.02 0.02 0.01 0.01 0.01 0.00 0.00 0.00
0.01 0.01 0.01 0.01 0.02 0.01 0.01 0.01 0.02 0.02 0.02 0.02 0.02 0.02 0.02 0.02 0.02 0.01 0.01 0.01 0.01 0.01 0.01 0.01 0.01 0.01 0.01 0.01 0.01 0.01 0.01 0.01 0.02 0.02 0.02 0.01 0.01 0.02 0.01 0.01 0.00 0.00 0.00
MSLP
1019.93 1019.93 1020.03 1020.25 1020.59 1020.98 1021.36 1021.66 1021.83 1021.87 1021.78 1021.63 1021.47 1021.36 1021.31 1021.34 1021.43 1021.53 1021.61 1021.64 1021.60 1021.50 1021.36 1021.22 1021.09 1020.99 1020.90 1020.84 1020.76 1020.66 1020.52 1020.35 1020.17 1019.97 1019.79 1019.63 1019.49 1019.36 1019.22 1019.07 1018.88 1018.66 1018.40
1020.00 1020.09 1020.26 1020.54 1020.90 1021.30 1021.67 1021.95 1022.10 1022.12 1022.04 1021.91 1021.79 1021.72 1021.73 1021.81 1021.94 1022.08 1022.18 1022.21 1022.18 1022.09 1021.97 1021.84 1021.72 1021.62 1021.53 1021.44 1021.33 1021.18 1021.00 1020.80 1020.59 1020.39 1020.22 1020.08 1019.97 1019.87 1019.76 1019.62 1019.45 1019.24 1018.99
1020.16 1020.29 1020.50 1020.80 1021.18 1021.57 1021.92 1022.19 1022.34 1022.37 1022.32 1022.24 1022.17 1022.17 1022.23 1022.36 1022.51 1022.66 1022.75 1022.78 1022.74 1022.65 1022.53 1022.41 1022.29 1022.20 1022.10 1021.99 1021.84 1021.66 1021.45 1021.22 1020.99 1020.79 1020.63 1020.51 1020.43 1020.35 1020.26 1020.13 1019.97 1019.77 1019.55
1020.38 1020.54 1020.77 1021.07 1021.43 1021.81 1022.16 1022.42 1022.58 1022.64 1022.64 1022.62 1022.62 1022.67 1022.78 1022.93 1023.09 1023.23 1023.30 1023.30 1023.24 1023.14 1023.02 1022.90 1022.80 1022.71 1022.61 1022.49 1022.33 1022.12 1021.88 1021.63 1021.40 1021.20 1021.05 1020.94 1020.86 1020.79 1020.70 1020.58 1020.42 1020.23 1020.04
1020.66 1020.82 1021.05 1021.34 1021.69 1022.06 1022.39 1022.66 1022.84 1022.94 1022.99 1023.03 1023.09 1023.19 1023.33 1023.50 1023.64 1023.75 1023.79 1023.76 1023.67 1023.56 1023.44 1023.33 1023.25 1023.17 1023.09 1022.97 1022.80 1022.58 1022.34 1022.08 1021.84 1021.64 1021.48 1021.37 1021.28 1021.19 1021.09 1020.95 1020.79 1020.61 1020.43
1020.96 1021.12 1021.33 1021.62 1021.96 1022.31 1022.64 1022.92 1023.12 1023.25 1023.35 1023.43 1023.54 1023.68 1023.83 1023.99 1024.12 1024.20 1024.20 1024.14 1024.04 1023.91 1023.80 1023.71 1023.65 1023.60 1023.53 1023.42 1023.26 1023.05 1022.81 1022.56 1022.31 1022.11 1021.94 1021.81 1021.69 1021.57 1021.43 1021.26 1021.08 1020.89 1020.73
1021.24 1021.39 1021.60 1021.89 1022.23 1022.58 1022.92 1023.20 1023.41 1023.57 1023.69 1023.80 1023.93 1024.08 1024.24 1024.40 1024.51 1024.56 1024.54 1024.46 1024.35 1024.23 1024.13 1024.06 1024.02 1023.99 1023.94 1023.85 1023.71 1023.52 1023.29 1023.04 1022.81 1022.60 1022.42 1022.26 1022.10 1021.93 1021.74 1021.53 1021.31 1021.12 1020.96
1021.48 1021.62 1021.84 1022.14 1022.49 1022.85 1023.19 1023.48 1023.69 1023.86 1023.98 1024.11 1024.24 1024.39 1024.55 1024.69 1024.79 1024.83 1024.80 1024.72 1024.62 1024.52 1024.44 1024.39 1024.37 1024.36 1024.32 1024.25 1024.13 1023.95 1023.74 1023.52 1023.29 1023.09 1022.90 1022.71 1022.51 1022.29 1022.05 1021.79 1021.53 1021.32 1021.16
1021.65 1021.80 1022.03 1022.35 1022.72 1023.10 1023.45 1023.73 1023.95 1024.10 1024.22 1024.33 1024.45 1024.60 1024.74 1024.88 1024.97 1025.02 1025.00 1024.94 1024.86 1024.78 1024.72 1024.69 1024.67 1024.67 1024.64 1024.58 1024.47 1024.31 1024.12 1023.92 1023.72 1023.53 1023.34 1023.14 1022.92 1022.66 1022.37 1022.07 1021.78 1021.54 1021.37
1021.74 1021.90 1022.16 1022.51 1022.91 1023.30 1023.65 1023.93 1024.14 1024.28 1024.38 1024.47 1024.58 1024.70 1024.84 1024.98 1025.08 1025.14 1025.15 1025.12 1025.07 1025.01 1024.96 1024.94 1024.92 1024.91 1024.88 1024.81 1024.71 1024.57 1024.41 1024.23 1024.06 1023.90 1023.72 1023.53 1023.30 1023.03 1022.72 1022.39 1022.08 1021.82 1021.63
1021.76 1021.95 1022.24 1022.61 1023.02 1023.43 1023.78 1024.06 1024.25 1024.37 1024.46 1024.53 1024.62 1024.74 1024.88 1025.01 1025.13 1025.22 1025.26 1025.26 1025.23 1025.19 1025.16 1025.13 1025.10 1025.07 1025.02 1024.94 1024.84 1024.71 1024.57 1024.43 1024.30 1024.17 1024.03 1023.86 1023.65 1023.39 1023.08 1022.76 1022.43 1022.15 1021.93
1021.74 1021.94 1022.25 1022.64 1023.06 1023.47 1023.82 1024.08 1024.27 1024.38 1024.45 1024.52 1024.60 1024.72 1024.85 1025.00 1025.13 1025.24 1025.31 1025.34 1025.33 1025.31 1025.28 1025.24 1025.20 1025.14 1025.07 1024.97 1024.86 1024.74 1024.63 1024.52 1024.42 1024.34 1024.24 1024.12 1023.95 1023.72 1023.45 1023.14 1022.82 1022.53 1022.29
1021.67 1021.89 1022.21 1022.60 1023.01 1023.41 1023.75 1024.01 1024.19 1024.30 1024.38 1024.45 1024.53 1024.65 1024.79 1024.95 1025.10 1025.22 1025.31 1025.36 1025.37 1025.36 1025.33 1025.28 1025.22 1025.14 1025.05 1024.94 1024.82 1024.71 1024.60 1024.52 1024.46 1024.42 1024.37 1024.29 1024.18 1024.01 1023.78 1023.51 1023.21 1022.92 1022.67
1021.56 1021.80 1022.11 1022.49 1022.89 1023.27 1023.59 1023.84 1024.03 1024.15 1024.24 1024.32 1024.42 1024.55 1024.70 1024.86 1025.01 1025.15 1025.25 1025.32 1025.34 1025.34 1025.31 1025.26 1025.18 1025.09 1024.99 1024.87 1024.75 1024.64 1024.55 1024.48 1024.44 1024.43 1024.42 1024.39 1024.33 1024.22 1024.04 1023.83 1023.57 1023.30 1023.04
1021.43 1021.66 1021.97 1022.32 1022.68 1023.04 1023.34 1023.60 1023.79 1023.93 1024.04 1024.15 1024.27 1024.40 1024.56 1024.72 1024.88 1025.02 1025.13 1025.20 1025.24 1025.25 1025.23 1025.19 1025.12 1025.04 1024.93 1024.81 1024.70 1024.58 1024.49 1024.43 1024.40 1024.40 1024.41 1024.42 1024.40 1024.34 1024.23 1024.06 1023.85 1023.61 1023.36
1021.24 1021.48 1021.76 1022.08 1022.42 1022.74 1023.03 1023.28 1023.49 1023.66 1023.80 1023.93 1024.07 1024.21 1024.36 1024.52 1024.67 1024.81 1024.92 1025.01 1025.07 1025.10 1025.11 1025.09 1025.05 1024.98 1024.89 1024.79 1024.68 1024.57 1024.48 1024.41 1024.37 1024.36 1024.37 1024.38 1024.39 1024.36 1024.30 1024.19 1024.03 1023.83 1023.60
1021.00 1021.24 1021.50 1021.79 1022.10 1022.40 1022.68 1022.94 1023.16 1023.36 1023.52 1023.67 1023.82 1023.96 1024.10 1024.24 1024.38 1024.51 1024.63 1024.73 1024.82 1024.89 1024.93 1024.96 1024.96 1024.93 1024.87 1024.79 1024.69 1024.59 1024.49 1024.40 1024.34 1024.30 1024.29 1024.30 1024.30 1024.30 1024.27 1024.20 1024.09 1023.93 1023.73
1020.71 1020.94 1021.19 1021.46 1021.74 1022.03 1022.32 1022.58 1022.83 1023.04 1023.22 1023.37 1023.51 1023.63 1023.75 1023.87 1023.99 1024.12 1024.24 1024.37 1024.49 1024.60 1024.70 1024.78 1024.83 1024.85 1024.83 1024.78 1024.70 1024.61 1024.50 1024.39 1024.30 1024.24 1024.19 1024.17 1024.16 1024.16 1024.14 1024.11 1024.03 1023.92 1023.75
1020.38 1020.61 1020.85 1021.11 1021.38 1021.67 1021.96 1022.24 1022.49 1022.71 1022.89 1023.03 1023.14 1023.23 1023.31 1023.40 1023.50 1023.61 1023.75 1023.90 1024.06 1024.23 1024.38 1024.52 1024.63 1024.70 1024.73 1024.71 1024.66 1024.58 1024.47 1024.35 1024.24 1024.14 1024.06 1024.00 1023.97 1023.96 1023.95 1023.92 1023.88 1023.79 1023.65
1020.05 1020.28 1020.51 1020.76 1021.03 1021.33 1021.63 1021.91 1022.17 1022.38 1022.54 1022.65 1022.71 1022.75 1022.78 1022.82 1022.89 1023.00 1023.15 1023.33 1023.53 1023.75 1023.96 1024.15 1024.31 1024.43 1024.50 1024.52 1024.50 1024.44 1024.35 1024.23 1024.11 1023.99 1023.89 1023.80 1023.75 1023.71 1023.69 1023.68 1023.64 1023.58 1023.47
1019.77 1019.98 1020.20 1020.44 1020.72 1021.02 1021.33 1021.62 1021.87 1022.06 1022.18 1022.23 1022.23 1022.20 1022.17 1022.16 1022.19 1022.28 1022.44 1022.64 1022.88 1023.14 1023.40 1023.63 1023.83 1023.99 1024.10 1024.17 1024.18 1024.15 1024.09 1024.00 1023.89 1023.78 1023.67 1023.57 1023.50 1023.45 1023.42 1023.39 1023.36 1023.31 1023.21
1019.58 1019.76 1019.96 1020.19 1020.47 1020.77 1021.07 1021.35 1021.58 1021.73 1021.80 1021.78 1021.71 1021.60 1021.49 1021.42 1021.41 1021.48 1021.64 1021.85 1022.12 1022.40 1022.69 1022.95 1023.18 1023.37 1023.51 1023.61 1023.67 1023.69 1023.68 1023.64 1023.57 1023.49 1023.40 1023.31 1023.24 1023.18 1023.13 1023.09 1023.05 1023.00 1022.91
1019.53 1019.66 1019.82 1020.03 1020.29 1020.57 1020.86 1021.11 1021.31 1021.41 1021.41 1021.32 1021.16 1020.96 1020.78 1020.64 1020.59 1020.63 1020.77 1020.98 1021.25 1021.55 1021.84 1022.12 1022.36 1022.56 1022.73 1022.86 1022.97 1023.05 1023.11 1023.14 1023.15 1023.13 1023.09 1023.03 1022.97 1022.91 1022.85 1022.80 1022.75 1022.68 1022.58
1019.63 1019.70 1019.81 1019.97 1020.19 1020.43 1020.68 1020.90 1021.04 1021.08 1021.01 1020.84 1020.60 1020.33 1020.07 1019.87 1019.76 1019.76 1019.87 1020.06 1020.32 1020.60 1020.88 1021.15 1021.39 1021.60 1021.79 1021.96 1022.12 1022.28 1022.42 1022.55 1022.65 1022.71 1022.74 1022.74 1022.71 1022.65 1022.59 1022.52 1022.45 1022.36 1022.25
1019.87 1019.87 1019.91 1020.00 1020.15 1020.34 1020.53 1020.69 1020.77 1020.75 1020.62 1020.38 1020.06 1019.72 1019.39 1019.12 1018.96 1018.91 1018.97 1019.13 1019.35 1019.60 1019.85 1020.10 1020.32 1020.54 1020.75 1020.96 1021.18 1021.42 1021.66 1021.89 1022.10 1022.26 1022.37 1022.43 1022.44 1022.41 1022.35 1022.27 1022.17 1022.06 1021.92
1020.21 1020.14 1020.09 1020.10 1020.16 1020.27 1020.38 1020.47 1020.49 1020.42 1020.23 1019.93 1019.55 1019.15 1018.76 1018.44 1018.21 1018.10 1018.11 1018.21 1018.37 1018.58 1018.80 1019.01 1019.23 1019.44 1019.67 1019.93 1020.22 1020.54 1020.88 1021.21 1021.53 1021.79 1022.00 1022.13 1022.19 1022.18 1022.13 1022.03 1021.91 1021.77 1021.61
Thickness
5712 5713 5713 5713 5714 5714 5714 5714 5714 5714 5714 5714 5714 5714 5714 5714 5714 5714 5714 5714 5715 5715 5715 5716 5715 5715 5715 5714 5714 5714 5714 5713 5713 5713 5713 5712 5712 5711 5711 5711 5710 5710 5709
5710 5709 5709 5709 5710 5710 5710 5710 5710 5710 5710 5710 5710 5710 5710 5710 5710 5710 5710 5711 5711 5711 5711 5711 5711 5710 5710 5710 5710 5709 5709 5709 5708 5708 5708 5707 5707 5707 5706 5706 5705 5704 5704
5707 5706 5704 5705 5705 5706 5706 5706 5706 5706 5706 5706 5705 5705 5705 5705 5705 5706 5706 5706 5706 5707 5707 5706 5706 5705 5705 5705 5705 5705 5705 5704 5704 5704 5703 5703 5702 5701 5701 5700 5700 5699 5699
5703 5701 5700 5700 5700 5701 5701 5701 5701 5701 5701 5701 5700 5700 5700 5700 5700 5701 5701 5701 5701 5702 5701 5701 5701 5700 5700 5700 5700 5700 5700 5699 5700 5699 5699 5698 5697 5696 5695 5695 5694 5694 5694
5697 5696 5694 5694 5695 5695 5696 5695 5695 5695 5695 5695 5695 5695 5695 5695 5695 5695 5695 5696 5696 5696 5696 5696 5695 5695 5695 5695 5694 5694 5694 5694 5694 5694 5693 5692 5691 5691 5690 5689 5688 5688 5688
5691 5690 5689 5689 5689 5689 5690 5690 5690 5690 5690 5690 5690 5690 5690 5690 5690 5690 5690 5690 5690 5691 5691 5690 5690 5689 5689 5689 5689 5689 5689 5689 5689 5688 5687 5686 5685 5684 5684 5683 5682 5682 5682
5685 5684 5682 5683 5683 5683 5683 5683 5683 5683 5684 5684 5684 5684 5684 5684 5685 5685 5685 5685 5685 5685 5685 5684 5684 5684 5683 5683 5683 5683 5683 5683 5683 5682 5681 5680 5679 5678 5678 5677 5676 5676 5676
5678 5677 5676 5676 5676 5676 5676 5677 5677 5677 5677 5678 5678 5678 5678 5679 5679 5679 5679 5679 5679 5679 5678 5678 5678 5678 5677 5677 5676 5676 5677 5677 5677 5676 5675 5674 5673 5672 5672 5671 5670 5669 5669
5671 5670 5669 5669 5669 5669 5669 5669 5670 5670 5670 5671 5671 5672 5672 5672 5673 5673 5673 5673 5673 5673 5672 5672 5671 5671 5671 5670 5670 5670 5670 5670 5670 5670 5669 5668 5667 5666 5665 5664 5664 5663 5663
5664 5663 5663 5663 5663 5662 5662 5662 5663 5663 5664 5664 5664 5665 5665 5666 5666 5667 5667 5667 5666 5666 5665 5665 5665 5665 5664 5664 5663 5663 5663 5663 5663 5662 5661 5661 5660 5659 5658 5657 5657 5656 5656
5655 5656 5656 5656 5656 5656 5655 5655 5655 5656 5656 5657 5657 5658 5659 5659 5659 5660 5660 5660 5659 5659 5659 5658 5658 5658 5658 5657 5656 5656 5656 5655 5655 5654 5654 5654 5653 5652 5651 5650 5649 5648 5648
5646 5647 5648 5649 5649 5648 5648 5648 5648 5648 5648 5649 5650 5651 5652 5652 5652 5652 5652 5652 5652 5652 5652 5651 5651 5651 5650 5650 5649 5649 5648 5648 5648 5647 5646 5646 5646 5645 5644 5643 5642 5641 5640
5639 5640 5640 5641 5642 5642 5641 5641 5641 5641 5641 5642 5643 5644 5645 5645 5645 5645 5644 5644 5644 5644 5644 5644 5644 5643 5643 5642 5642 5641 5641 5640 5640 5638 5637 5638 5638 5637 5636 5635 5634 5633 5633
5632 5632 5633 5634 5634 5634 5633 5633 5633 5633 5634 5634 5635 5636 5636 5637 5637 5636 5636 5636 5636 5636 5636 5636 5636 5635 5634 5634 5634 5633 5633 5632 5631 5630 5628 5628 5628 5628 5628 5627 5626 5626 5625
5625 5625 5625 5626 5626 5626 5625 5625 5626 5626 5626 5627 5628 5628 5628 5628 5628 5627 5627 5627 5627 5627 5627 5627 5627 5627 5626 5625 5625 5625 5624 5623 5622 5621 5619 5619 5618 5618 5618 5617 5617 5617 5616
5618 5618 5618 5618 5618 5618 5617 5617 5618 5618 5619 5619 5620 5620 5620 5620 5619 5618 5618 5617 5618 5618 5618 5618 5618 5618 5617 5617 5616 5615 5614 5613 5612 5612 5610 5609 5608 5607 5607 5607 5607 5607 5607
5610 5610 5609 5610 5610 5610 5609 5609 5610 5610 5610 5611 5611 5611 5611 5611 5610 5610 5609 5609 5608 5608 5608 5608 5608 5608 5608 5607 5607 5606 5605 5604 5602 5601 5600 5599 5598 5597 5596 5596 5596 5596 5597
5604 5602 5602 5602 5602 5601 5601 5601 5602 5602 5602 5602 5602 5602 5602 5602 5601 5601 5600 5599 5599 5599 5599 5599 5598 5598 5597 5597 5596 5596 5595 5594 5593 5591 5590 5589 5588 5586 5585 5585 5585 5585 5586
5596 5595 5594 5594 5593 5593 5593 5593 5592 5593 5593 5593 5593 5593 5593 5593 5593 5592 5591 5590 5590 5589 5589 5589 5588 5588 5587 5586 5586 5586 5585 5584 5583 5581 5580 5579 5578 5576 5575 5574 5574 5574 5574
5588 5588 5586 5585 5584 5584 5584 5583 5583 5583 5583 5584 5584 5584 5584 5584 5583 5583 5582 5581 5580 5579 5578 5578 5578 5577 5576 5576 5576 5575 5575 5574 5573 5571 5570 5569 5568 5566 5565 5564 5564 5563 5563
5579 5578 5577 5576 5575 5575 5575 5574 5573 5573 5573 5573 5574 5574 5575 5575 5574 5573 5572 5571 5570 5569 5568 5568 5567 5566 5565 5566 5564 5563 5564 5564 5563 5562 5561 5559 5558 5557 5555 5554 5553 5553 5552
5569 5568 5567 5567 5566 5566 5566 5566 5565 5565 5564 5564 5564 5565 5565 5565 5564 5564 5562 5561 5560 5560 5559 5558 5557 5555 5554 5554 5553 5551 5551 5551 5552 5552 5551 5550 5549 5547 5546 5545 5544 5543 5542
5558 5558 5559 5557 5557 5556 5556 5556 5555 5554 5554 5553 5554 5554 5555 5555 5554 5554 5553 5552 5551 5550 5549 5548 5547 5545 5543 5542 5542 5541 5540 5540 5539 5540 5540 5540 5539 5537 5536 5535 5535 5534 5532
5548 5548 5548 5548 5547 5546 5546 5546 5546 5545 5544 5545 5545 5545 5545 5544 5544 5544 5543 5542 5541 5541 5539 5538 5537 5536 5534 5532 5531 5531 5530 5529 5527 5526 5528 5529 5529 5528 5527 5526 5525 5524 5523
5538 5537 5538 5538 5537 5536 5536 5536 5536 5536 5536 5535 5535 5535 5534 5534 5534 5534 5534 5533 5532 5531 5530 5529 5527 5526 5525 5523 5521 5520 5520 5519 5518 5515 5515 5515 5516 5517 5516 5516 5515 5514 5513
5527 5527 5527 5527 5526 5526 5525 5525 5525 5525 5525 5524 5523 5523 5523 5523 5524 5524 5524 5523 5522 5521 5520 5519 5518 5516 5515 5514 5512 5511 5509 5507 5506 5505 5504 5504 5504 5505 5506 5506 5505 5504 5503